Theta_e
314 314 313 313 313 313 313 313 313 313 313 312 311 312 314 315 314 314 313 313 314 313 312 315 316 314 310 307 308 308 308 308 309 314 318 317 309 310 311 313 321 327 331 329 325 331 336 337 335 331 330 334 338 342 349 357 360 364 367 364 361 368 367 361 365 366 365 366 364 363 364 365 364 365 365 366 365 358 359 358 353 351 349 349 350 350 351 352
313 313 313 313 314 313 313 313 313 314 314 313 312 312 313 315 315 315 314 313 313 313 313 315 316 313 309 308 308 308 309 310 315 321 322 310 311 311 309 315 320 324 328 327 325 331 337 338 336 335 339 345 346 346 355 359 360 367 370 365 365 373 371 363 366 367 366 366 364 363 364 364 363 364 364 365 363 358 359 357 352 353 351 350 350 350 352 351
312 312 313 313 313 313 313 313 313 314 314 313 313 313 313 314 315 316 315 314 313 313 314 315 315 313 310 308 308 309 312 315 327 337 325 313 314 309 311 316 318 321 323 323 323 329 333 334 335 337 343 349 349 350 360 362 364 371 366 370 377 374 370 366 367 368 366 364 363 364 364 364 364 364 365 363 360 358 358 356 354 355 353 351 350 351 351 351
312 312 312 313 313 313 313 313 313 314 314 313 313 313 313 313 315 316 315 314 313 314 315 316 315 313 310 308 309 310 314 323 336 335 325 323 316 309 314 314 316 318 320 321 321 327 332 333 336 338 342 347 349 354 361 362 366 370 364 376 380 366 369 369 366 369 365 363 364 363 363 364 362 363 366 361 359 360 358 354 354 354 353 351 351 351 351 352
311 312 312 313 314 313 313 314 313 313 313 313 313 313 313 313 314 315 313 312 312 313 314 316 315 313 311 309 311 313 319 331 331 328 326 323 314 313 316 314 317 318 318 320 319 326 330 329 331 334 340 345 352 359 362 361 360 365 364 370 371 364 371 368 365 368 364 363 365 362 362 363 362 364 366 361 359 359 355 353 352 352 352 350 351 351 351 351
312 312 312 313 314 314 314 314 314 314 313 313 313 313 313 313 313 313 312 312 312 312 312 315 313 312 311 309 313 316 322 328 325 327 326 320 313 314 317 316 318 318 317 318 318 324 326 325 327 331 339 342 351 362 364 360 356 366 368 361 360 362 367 365 363 366 364 365 366 363 361 361 362 364 363 361 363 361 355 352 351 351 350 350 351 351 351 351
312 312 313 313 313 314 314 314 314 315 314 314 314 314 314 313 312 311 312 312 312 312 311 313 312 311 309 310 317 321 324 325 322 324 324 319 314 313 317 317 318 318 316 317 319 323 324 326 328 330 337 340 346 358 365 360 354 364 370 361 358 358 362 364 363 364 363 365 365 363 361 362 365 363 361 363 365 363 356 351 350 351 350 350 351 351 351 351
312 312 313 313 313 314 314 314 315 315 315 314 315 314 314 313 311 311 312 312 312 311 312 313 312 310 308 313 321 326 328 327 320 321 322 320 314 312 317 318 318 317 316 318 318 322 324 326 328 330 337 338 341 354 363 360 357 363 365 361 357 358 363 363 363 362 363 364 363 361 361 362 363 361 362 364 365 360 353 351 350 350 350 350 350 351 352 352
312 313 313 313 313 313 314 314 315 315 315 314 314 314 313 312 311 311 312 312 311 312 313 313 311 309 310 316 321 323 325 322 320 322 321 321 315 314 317 317 318 317 317 318 317 320 325 327 327 331 337 336 336 348 359 361 363 364 360 359 358 361 366 364 366 367 366 364 360 360 362 362 360 361 364 363 364 359 350 351 350 349 350 350 350 350 351 351
312 313 313 313 313 313 314 315 315 315 315 314 314 313 312 311 311 311 312 312 311 313 314 313 311 309 313 319 321 323 327 323 325 325 322 322 316 316 318 316 318 318 317 317 316 318 324 327 326 329 332 333 330 337 357 359 358 360 356 359 361 363 366 365 367 367 365 361 358 361 362 361 360 363 367 363 363 359 351 352 351 350 351 350 351 351 351 352
312 312 313 313 313 313 314 315 315 315 315 315 314 313 312 311 310 312 312 311 312 313 314 314 311 310 315 321 318 318 328 327 329 328 324 321 317 318 318 316 317 318 317 315 316 316 321 324 324 329 331 332 328 332 356 352 344 357 358 362 361 361 364 365 367 365 365 362 357 360 361 361 362 364 369 364 362 362 354 352 351 350 351 350 351 351 351 351
312 312 313 313 313 314 314 314 315 316 316 315 314 313 312 311 311 312 312 311 313 313 315 314 311 313 319 323 319 316 323 327 327 327 325 320 320 320 317 317 316 316 316 314 315 314 318 322 321 329 331 333 329 328 343 336 337 358 361 364 362 362 365 363 366 366 366 362 357 360 361 362 365 364 364 362 364 363 356 352 351 351 350 350 350 350 351 351
312 312 313 313 313 314 314 314 315 316 317 316 314 313 311 311 311 312 311 312 314 313 313 311 310 314 319 323 320 314 318 320 319 322 322 320 321 321 318 318 317 317 316 313 315 314 316 320 321 327 329 330 328 324 330 324 338 360 360 364 365 366 369 364 363 365 366 362 360 364 362 361 365 363 360 361 364 360 354 352 351 351 350 350 350 350 351 351
313 313 313 313 313 313 314 314 315 316 316 315 313 312 311 311 312 312 311 312 313 311 310 310 312 318 321 322 316 310 317 320 319 321 321 321 321 320 319 318 317 317 316 313 315 317 318 320 321 325 327 328 328 325 327 326 346 363 358 363 368 364 366 365 362 366 368 362 361 365 361 361 365 362 360 360 361 358 352 352 350 351 350 350 350 350 351 351
313 313 313 313 313 313 314 314 315 316 316 314 312 312 311 312 312 311 311 312 312 309 308 310 316 322 326 326 317 313 321 324 325 323 321 322 319 318 318 317 316 316 316 314 314 318 320 321 324 326 326 328 326 326 330 331 347 362 356 358 364 360 361 365 362 365 369 363 361 363 361 362 365 362 360 359 360 360 353 351 350 350 350 350 350 350 350 350
313 313 313 313 313 314 314 314 315 315 315 313 312 312 312 312 312 311 311 312 311 309 311 315 317 320 325 326 320 319 324 326 327 323 322 322 317 316 317 316 315 314 314 313 313 317 319 322 326 326 325 325 325 331 333 329 336 349 357 356 356 356 360 365 364 363 366 364 362 364 363 365 367 363 361 359 358 359 356 353 351 351 351 350 350 349 349 349
313 313 313 313 314 314 314 314 314 315 315 313 312 312 313 313 312 312 312 312 310 309 314 317 317 318 321 321 321 324 326 326 325 324 323 321 316 314 315 315 315 314 313 313 315 319 322 324 326 325 325 325 327 333 327 320 326 336 352 358 354 357 358 362 367 364 362 364 365 366 364 366 366 363 362 360 357 356 357 355 353 352 350 350 349 348 348 348
313 313 313 313 314 314 314 314 314 315 315 314 313 312 313 314 313 314 313 314 315 314 316 317 319 322 320 316 321 324 323 323 323 324 323 321 318 315 315 316 317 317 317 319 321 322 325 325 325 325 326 325 326 330 323 318 326 334 345 353 352 357 358 359 366 364 361 365 367 366 365 366 366 363 363 361 358 356 356 356 356 354 350 350 349 348 347 347
313 313 314 314 314 314 314 315 313 314 316 316 314 313 315 316 316 317 316 319 322 322 321 323 326 326 319 317 320 319 319 321 323 322 322 322 319 316 317 319 321 322 322 326 326 324 325 323 323 324 324 324 325 325 325 323 327 333 345 354 352 354 356 359 363 362 362 365 367 366 364 367 366 363 363 361 359 357 355 358 363 361 352 350 350 348 347 346
313 313 314 314 314 314 314 315 313 315 317 316 314 315 320 322 322 323 321 322 324 321 320 324 326 323 319 319 318 318 321 322 323 321 321 321 317 316 318 321 324 325 327 330 328 324 324 323 323 324 323 327 325 323 326 324 323 326 333 346 354 354 352 359 364 360 361 365 365 365 366 367 366 363 362 360 360 358 357 359 365 366 355 350 350 348 348 346
313 313 314 314 314 314 314 314 314 315 318 317 316 317 323 324 324 323 323 324 323 319 319 321 321 320 319 319 318 320 323 323 323 322 322 320 318 317 319 323 326 328 328 328 326 322 323 323 323 326 326 326 323 322 323 322 323 322 322 330 341 349 353 358 364 361 359 364 364 365 366 366 365 364 361 359 359 359 357 357 363 365 356 351 351 348 348 345
313 314 314 314 315 314 314 315 315 316 318 318 317 317 319 320 319 319 319 321 320 319 321 321 319 320 319 319 320 320 322 324 324 323 323 321 319 320 322 324 328 331 327 323 324 323 323 323 323 325 324 322 321 321 320 321 323 321 322 321 322 339 358 361 362 362 358 362 365 365 365 365 366 363 361 359 359 359 357 356 361 363 356 351 351 348 348 345
313 314 314 315 315 314 315 315 315 318 318 317 317 317 318 318 318 318 317 318 319 319 321 322 323 324 324 322 322 322 324 325 324 323 323 322 322 323 325 325 327 328 324 323 325 323 322 324 325 324 321 320 321 320 319 320 320 318 322 317 317 340 361 358 362 363 357 360 364 365 364 365 366 364 361 359 359 361 360 360 364 364 356 350 350 348 347 344
313 314 314 315 314 315 315 315 317 318 317 318 318 319 320 319 318 318 318 319 320 318 319 320 323 327 328 323 320 323 325 324 324 325 323 324 324 323 324 326 326 325 324 325 325 324 323 325 324 322 321 321 322 321 319 319 318 317 320 315 323 351 360 357 364 361 359 362 363 363 359 360 365 365 364 360 359 360 360 361 364 365 361 357 356 355 350 344
313 314 314 314 315 315 314 316 319 317 317 319 320 320 320 320 318 318 320 324 324 322 318 315 318 323 322 319 319 321 323 323 324 324 323 324 324 323 323 323 324 326 325 324 323 324 325 323 322 321 322 320 320 322 319 319 316 314 320 316 326 357 363 361 364 359 359 360 361 359 353 355 362 364 365 362 361 361 360 361 360 362 364 363 362 362 359 349
313 314 314 314 315 314 316 319 319 316 318 320 319 320 320 320 319 317 322 327 323 322 320 314 316 319 316 316 320 320 321 323 323 322 322 323 323 324 323 323 324 326 326 325 324 324 324 322 322 321 324 322 320 321 318 320 315 311 321 320 324 355 364 360 361 356 354 355 360 358 353 354 358 361 364 361 361 361 360 362 359 359 363 362 360 361 363 356
313 314 314 314 314 314 317 320 317 316 321 321 319 320 319 320 319 315 324 329 321 317 317 315 315 316 314 315 319 321 321 321 320 322 323 323 323 323 325 325 324 323 324 324 321 322 324 323 322 322 323 322 321 320 319 319 315 313 324 322 327 354 363 360 359 353 353 357 360 358 354 355 356 358 363 362 362 363 361 363 361 358 360 360 358 358 362 360
314 314 314 315 314 314 316 317 316 317 320 319 319 320 320 320 319 319 325 325 318 313 315 314 313 314 314 315 318 320 320 319 318 321 322 323 323 323 325 327 326 325 326 324 321 324 325 322 323 323 322 322 321 321 321 319 316 319 325 325 334 354 360 361 357 349 351 356 356 356 352 354 357 359 364 365 363 364 363 363 362 360 359 358 357 357 359 360
313 314 315 315 314 315 316 315 316 317 318 318 319 320 321 319 320 327 328 320 313 313 315 314 313 314 314 315 316 317 318 318 318 320 322 323 322 322 325 327 326 326 324 323 324 325 324 324 325 323 322 323 322 323 321 318 320 322 323 327 338 349 356 360 357 346 346 351 352 353 350 351 357 359 362 365 362 363 364 362 361 360 359 357 356 356 358 359
313 314 314 315 315 315 315 315 316 317 317 318 319 321 321 324 330 332 325 316 312 314 315 313 313 314 315 316 316 317 317 318 320 322 323 323 323 322 323 324 324 325 326 325 324 323 321 324 326 325 323 324 322 323 320 318 322 322 323 328 332 342 353 356 353 345 343 346 348 348 348 348 350 355 360 363 362 362 363 362 361 360 359 358 356 356 357 358
314 314 315 315 315 314 315 317 317 318 318 318 320 321 323 330 337 332 321 315 314 314 314 314 314 314 316 316 317 318 317 318 320 323 324 323 322 322 323 323 323 325 328 326 322 322 322 321 325 328 328 325 321 322 321 318 320 320 326 329 325 332 342 345 349 350 347 346 344 346 349 344 343 351 359 362 361 361 362 362 361 360 359 358 356 355 357 356
314 314 315 315 315 315 316 318 318 318 319 318 320 327 333 331 327 323 320 316 314 313 314 316 315 314 315 316 317 317 317 317 319 323 325 323 323 323 325 329 326 320 321 324 321 321 324 324 326 329 331 328 322 322 322 322 323 322 327 327 320 324 333 339 346 350 346 343 339 344 348 343 343 352 361 362 360 360 360 360 360 359 358 358 356 355 356 356
314 315 315 315 316 315 316 318 319 319 320 320 323 334 342 333 319 319 323 319 313 314 316 316 315 315 315 315 316 317 316 316 318 321 321 322 324 323 323 328 326 320 321 322 318 318 322 324 325 324 328 330 325 322 321 322 325 324 325 323 320 325 329 332 340 342 339 335 331 339 348 345 345 349 357 359 357 358 360 357 358 358 357 357 356 355 356 356
314 315 315 315 316 315 317 319 319 321 319 320 328 336 333 324 319 321 322 319 317 316 315 315 314 315 315 315 316 317 316 316 318 320 320 321 323 322 322 322 320 322 323 320 317 318 318 321 328 326 325 329 328 326 327 329 329 328 331 328 323 327 328 326 334 337 334 332 331 337 345 346 345 346 353 355 352 356 359 356 358 358 357 357 356 356 357 356
314 315 315 316 316 316 319 320 321 322 319 323 337 338 323 317 320 320 318 318 318 316 315 315 316 315 316 317 318 317 316 315 317 319 318 319 318 318 320 318 317 321 320 318 320 321 317 320 330 328 323 326 328 328 333 332 326 326 331 327 320 327 331 324 327 331 328 333 339 340 344 350 354 355 357 357 355 357 360 358 358 358 357 357 357 357 357 357
314 315 316 316 317 319 320 320 321 321 321 330 339 332 321 319 320 317 316 317 315 314 318 318 317 316 316 319 320 317 315 314 317 320 317 317 318 317 318 318 317 319 320 322 323 321 317 321 329 326 324 327 327 329 332 327 326 325 322 323 323 330 336 324 322 328 329 335 341 344 350 357 357 354 356 361 361 360 362 361 360 360 359 358 358 358 357 357
314 316 318 319 319 320 319 320 321 321 327 337 335 329 327 322 318 318 319 318 314 316 321 319 317 314 313 317 318 317 317 315 317 321 318 317 318 316 317 319 317 317 319 323 322 319 318 320 327 325 323 326 326 328 330 327 331 328 320 325 328 326 333 330 323 326 333 340 344 347 352 354 349 349 355 362 363 361 362 361 361 361 360 359 358 358 357 358
315 317 320 321 320 321 321 321 320 324 336 342 336 333 331 321 317 318 317 315 316 319 321 318 317 316 314 315 315 317 320 318 318 323 320 317 318 316 315 318 318 317 317 319 321 322 319 319 327 328 322 325 328 328 327 326 330 330 325 329 327 321 324 326 322 322 329 342 351 350 348 348 348 350 355 359 360 359 360 361 362 361 360 360 359 359 360 359
316 322 326 323 321 322 321 320 322 332 340 338 333 332 325 319 321 319 315 317 318 321 321 317 316 318 317 316 315 317 320 318 319 323 322 318 318 317 315 316 318 318 318 320 321 321 322 319 322 327 322 320 326 328 325 325 327 329 328 326 326 329 328 323 322 325 333 344 351 351 348 349 351 352 355 358 358 357 358 362 363 360 360 361 360 360 359 357
316 325 330 322 319 321 321 320 325 334 334 327 328 328 321 319 321 318 316 318 318 319 320 319 319 320 318 318 317 317 319 320 320 321 322 321 317 316 316 316 317 319 320 324 322 320 326 323 317 325 327 320 323 327 327 330 328 326 327 321 319 325 325 321 319 323 338 351 351 350 351 352 352 353 355 358 357 356 359 361 359 355 354 354 354 356 356 355
321 328 330 322 318 321 322 321 324 329 328 325 326 323 320 322 319 316 318 318 318 318 319 321 322 320 319 319 318 318 322 323 321 321 321 321 318 316 315 315 316 318 321 326 324 320 325 324 318 322 324 320 323 325 326 331 330 328 326 320 320 321 320 321 319 320 337 349 345 348 353 352 352 351 351 354 354 355 356 356 355 352 350 351 352 353 354 355
325 328 327 321 319 321 320 323 329 327 324 326 326 320 321 324 319 316 318 319 319 318 319 323 322 320 320 319 318 321 325 324 321 321 319 318 318 316 316 316 316 318 322 323 322 325 329 328 324 323 323 322 324 325 323 323 326 329 324 321 326 324 321 323 320 322 334 342 343 348 351 351 350 350 350 352 353 353 352 352 352 351 349 349 350 351 352 355
327 327 325 320 321 321 317 323 333 332 326 326 324 319 320 319 317 316 316 320 321 319 321 322 320 322 321 319 319 321 322 321 319 320 320 318 318 316 317 318 316 319 324 320 320 327 332 328 325 328 335 334 328 327 327 324 325 326 321 323 324 318 322 329 329 335 341 344 348 350 351 352 350 349 351 351 351 351 350 350 350 349 348 347 347 348 350 352
327 327 330 324 317 319 320 320 326 333 334 328 319 317 319 316 316 317 315 318 319 319 322 320 319 322 321 319 321 320 320 319 317 318 319 317 318 319 320 319 315 316 319 320 323 324 326 328 329 331 335 334 331 330 326 324 328 326 322 323 322 321 327 329 333 346 346 341 346 349 350 352 349 349 351 350 349 349 349 349 348 347 347 346 346 347 347 349
329 328 333 329 316 316 323 322 321 327 328 325 318 315 318 317 316 316 315 317 317 319 323 320 318 322 322 322 323 321 321 322 320 321 321 319 319 319 319 317 316 320 324 330 335 332 327 331 335 335 331 325 325 325 322 321 325 325 323 320 320 324 327 323 329 343 343 339 343 347 349 353 351 349 350 349 349 350 349 348 347 347 346 345 346 345 345 347
334 329 330 334 324 317 320 319 319 322 322 325 324 315 315 318 316 315 317 316 315 318 322 320 320 323 324 325 327 325 324 324 324 325 324 324 322 317 317 318 318 328 337 336 338 343 339 331 334 339 334 325 327 331 331 327 321 317 317 320 319 322 331 335 334 339 343 343 345 347 349 354 353 351 351 351 350 350 349 347 346 345 345 344 344 345 345 346
334 326 324 332 329 321 320 317 317 321 320 323 322 315 314 316 315 316 318 317 316 318 322 322 322 324 325 327 330 328 327 327 327 327 326 326 326 322 321 320 319 331 338 329 331 348 347 330 328 333 328 324 328 330 326 323 318 314 316 321 320 319 335 345 335 332 342 342 342 348 351 353 353 351 351 351 350 349 347 346 345 344 344 344 344 344 344 344
329 325 322 324 323 321 319 316 319 324 323 324 323 317 316 315 316 317 316 317 316 317 323 325 321 323 326 331 334 331 330 331 328 327 327 325 328 330 325 322 322 327 328 322 327 344 344 329 325 324 320 320 322 318 317 319 318 316 317 321 322 323 335 343 338 341 349 343 342 349 351 352 353 350 349 349 348 347 346 345 344 342 342 342 342 342 341 340
327 332 329 324 325 328 324 318 320 323 326 336 332 319 315 317 319 317 314 318 319 317 323 325 319 319 322 330 339 333 329 330 325 323 325 323 325 328 324 323 325 324 323 321 324 334 336 329 327 326 321 321 320 316 317 319 316 316 319 319 321 327 339 345 342 346 352 347 346 349 350 351 350 347 348 348 345 344 343 342 342 341 339 338 337 337 336 336
326 330 331 331 336 340 334 327 326 322 324 334 331 319 318 320 320 318 313 316 319 318 322 321 317 318 317 321 329 324 323 329 324 319 321 320 321 325 323 321 322 324 325 321 320 325 324 322 331 338 331 322 321 320 318 318 317 316 318 319 319 325 337 345 345 344 348 349 347 348 350 350 347 345 346 345 343 342 341 341 342 340 338 335 333 333 332 331
322 322 325 335 344 343 338 333 331 327 323 326 326 322 323 321 319 319 315 314 317 318 322 322 318 320 320 320 321 317 318 324 323 317 319 318 317 319 320 318 320 324 323 319 321 326 324 323 334 345 340 327 322 322 320 321 322 317 316 319 319 320 324 334 342 345 347 349 348 349 351 350 345 345 345 343 342 341 341 340 338 337 335 332 330 330 330 328
325 324 323 332 340 339 335 331 327 325 320 320 324 325 323 320 319 322 319 315 315 315 319 323 322 321 320 318 317 316 315 317 318 316 317 316 315 316 318 318 320 322 320 321 325 329 330 330 329 335 341 335 327 323 320 322 325 321 319 317 317 322 331 339 345 346 344 346 348 349 350 347 344 343 343 342 341 340 339 336 334 333 333 331 329 328 328 328
Wind_Speed
13 13 12 13 13 13 14 14 14 14 13 14 13 13 12 12 11 10 11 11 11 11 11 11 9 8 6 5 6 9 12 12 11 8 9 12 14 14 9 12 15 16 18 14 13 11 8 6 7 9 7 4 2 1 3 4 2 1 1 0 1 1 2 4 5 3 4 6 7 6 4 6 8 1 1 1 5 8 7 5 5 7 10 12 17 25 28 29
14 13 13 13 13 13 14 14 14 14 14 14 14 14 13 12 12 10 11 11 11 11 10 10 8 7 6 4 6 9 12 13 11 11 17 14 9 12 13 15 17 18 18 16 17 15 9 6 8 8 5 2 2 3 4 3 2 2 1 1 1 2 3 5 4 4 6 8 9 6 4 5 7 4 1 4 8 8 8 7 9 12 12 15 21 26 27 27
14 14 14 13 13 13 14 14 15 15 15 15 14 14 14 13 12 11 11 11 11 11 10 10 8 6 5 4 5 8 10 10 6 9 12 11 13 13 15 20 19 19 20 17 18 17 10 7 10 8 3 1 2 4 4 2 2 2 1 1 3 3 3 4 4 4 5 9 11 7 4 5 5 2 1 7 10 8 8 9 11 14 14 15 18 23 26 24
14 14 14 14 14 14 14 14 15 15 15 15 14 14 13 13 11 10 11 11 12 12 11 10 7 5 4 3 4 7 7 5 3 6 4 5 13 16 19 23 21 20 20 14 12 14 7 5 8 6 3 2 2 4 3 3 2 1 2 2 3 3 2 5 5 4 6 9 9 8 6 5 4 1 2 10 11 7 8 9 12 16 18 18 17 20 23 22
14 15 14 15 15 16 16 15 15 15 15 15 14 14 14 13 11 10 10 11 12 12 12 10 6 4 2 2 3 6 4 1 2 4 2 3 11 21 22 22 21 20 21 13 8 11 5 2 4 2 2 2 2 4 3 5 3 1 3 3 2 3 2 5 6 6 8 7 7 9 8 5 3 2 3 6 8 6 8 11 14 16 18 19 18 19 20 19
14 15 14 15 16 16 16 16 16 16 15 15 14 14 14 13 11 10 10 11 12 12 13 9 5 3 2 0 2 3 1 1 4 3 1 1 11 24 23 20 20 19 20 15 8 8 5 2 3 2 2 2 3 4 3 5 4 1 3 2 2 2 2 6 8 8 8 8 9 10 8 6 6 4 4 2 1 3 7 12 14 16 18 21 20 18 16 15
15 15 15 16 17 17 17 17 17 16 16 15 15 14 14 13 11 10 10 10 11 12 12 9 4 2 1 1 1 2 1 5 6 5 2 2 11 22 23 19 18 19 19 15 8 7 5 4 4 2 2 2 5 6 3 5 5 2 2 2 2 2 4 7 8 9 7 6 6 6 8 6 7 5 1 1 3 2 9 13 14 17 20 21 18 15 14 15
15 15 16 16 17 18 18 17 17 16 16 15 15 15 14 13 11 9 10 10 11 12 11 7 2 2 1 2 1 2 1 6 6 7 4 5 12 20 23 19 18 19 19 16 10 8 6 6 5 3 3 4 4 4 3 5 3 4 2 1 3 3 4 7 8 9 8 3 3 9 11 6 7 6 1 1 3 4 13 14 15 17 18 16 14 14 13 13
16 16 16 16 17 18 18 18 18 17 17 15 15 15 14 13 11 9 9 10 12 11 8 4 1 3 2 1 2 2 3 5 4 6 7 9 15 20 23 20 19 19 17 15 12 8 6 6 6 5 3 4 3 3 5 4 2 5 5 2 4 6 5 6 5 7 8 5 6 11 10 5 4 4 2 4 4 7 16 15 15 16 15 14 13 14 13 12
16 16 17 17 17 18 19 19 19 19 17 16 15 15 14 12 10 8 8 10 11 10 5 1 3 4 3 0 3 1 4 2 3 8 8 11 18 22 23 21 22 21 16 12 12 10 6 6 6 4 2 3 3 3 6 5 2 6 5 3 6 7 5 5 6 7 8 8 9 10 6 2 3 1 1 3 4 7 17 16 15 15 14 14 13 13 14 14
17 17 17 17 18 19 20 20 20 19 18 16 15 15 13 10 9 8 8 9 8 7 3 2 3 4 3 1 3 3 4 2 5 9 8 12 19 22 22 22 23 24 18 9 13 15 10 6 2 1 2 2 3 1 4 4 2 8 9 8 7 8 6 5 7 6 7 7 11 13 5 1 2 1 3 3 2 3 15 17 15 15 13 13 14 12 12 13
17 17 17 18 19 20 21 21 21 19 18 16 15 14 12 9 7 7 7 7 6 5 1 3 5 6 3 1 4 7 1 3 2 6 7 11 17 20 21 22 23 25 21 11 12 19 16 7 3 2 2 2 4 1 2 2 2 8 9 7 4 6 4 2 4 5 6 6 11 13 6 2 1 2 2 1 2 2 13 17 15 14 12 12 12 11 10 13
18 17 18 18 20 21 22 22 21 19 18 16 15 14 10 7 6 5 5 5 3 2 1 4 6 5 3 0 8 8 3 4 5 4 7 10 13 17 20 21 21 22 22 15 11 15 17 9 2 3 3 3 4 3 1 1 4 6 5 6 4 3 1 0 3 4 7 6 8 8 4 3 2 2 1 1 2 7 16 16 14 13 11 11 11 10 10 12
18 18 18 20 21 23 22 21 21 19 17 16 15 12 7 5 4 3 3 3 2 1 3 6 7 4 3 5 9 5 3 6 7 8 9 11 12 12 17 17 17 19 20 17 9 6 10 9 5 4 3 4 5 4 2 3 2 5 5 3 2 1 1 2 4 4 5 4 6 3 3 4 5 5 4 2 2 10 17 15 14 13 11 11 10 11 10 11
19 20 20 21 22 23 23 21 20 19 18 16 14 9 3 2 2 1 3 3 3 4 5 6 5 2 2 7 9 4 4 4 8 14 12 14 12 9 14 16 14 17 18 17 12 5 4 3 3 3 4 5 3 2 3 3 2 4 4 1 1 1 1 1 3 5 5 4 5 1 3 3 5 6 5 4 4 9 15 15 14 14 14 13 10 11 10 10
20 20 21 22 23 24 23 22 20 19 18 15 11 5 1 1 2 3 4 3 3 6 6 4 2 1 1 5 5 3 4 4 8 12 12 15 14 9 14 15 10 13 15 14 12 8 5 2 2 3 3 3 2 3 3 3 1 1 2 3 2 2 2 0 3 5 5 6 4 3 3 3 3 5 5 5 7 9 11 12 13 14 14 13 11 10 9 10
20 21 21 22 23 23 22 21 20 19 17 13 8 3 1 2 3 4 4 4 4 6 5 2 2 0 3 6 4 3 4 5 5 9 14 16 14 10 13 10 4 7 9 7 6 5 3 2 2 2 1 1 2 4 4 1 3 2 2 3 2 2 3 2 2 5 5 7 6 3 3 4 3 7 7 7 9 10 10 11 11 11 13 12 11 10 9 10
20 20 21 22 23 23 22 22 21 20 18 13 8 4 1 3 4 3 5 7 6 4 1 2 1 1 3 5 3 4 7 6 4 9 15 17 14 11 13 7 3 6 3 1 3 2 2 1 0 0 0 2 2 4 3 3 4 5 2 3 2 2 4 4 2 7 9 7 6 4 4 4 5 8 8 7 9 10 10 10 7 8 12 12 11 10 10 10
20 20 21 22 23 23 22 22 22 22 18 12 8 3 3 5 5 3 5 6 3 1 2 2 2 1 1 4 6 9 13 11 4 8 14 17 14 11 10 6 5 7 4 2 2 3 3 0 2 2 3 4 4 5 5 3 6 7 4 4 5 4 4 4 2 7 11 8 6 6 5 6 8 9 9 7 9 11 11 7 4 6 10 11 10 10 10 10
20 20 21 22 22 23 22 22 23 20 17 14 8 3 5 4 3 1 1 3 4 5 5 4 6 2 5 6 7 10 13 10 5 7 13 17 13 7 5 2 4 4 3 3 3 2 4 2 3 4 5 6 5 5 5 2 3 5 3 2 6 5 4 3 4 7 10 6 4 5 6 8 11 11 10 7 7 11 12 9 5 6 9 10 11 11 10 9
20 20 21 22 22 23 22 22 23 17 15 15 9 4 3 0 2 2 2 3 7 9 9 7 8 7 8 9 8 6 6 4 5 4 10 16 11 6 2 1 4 1 2 3 2 0 3 4 6 6 8 7 4 6 5 4 2 3 4 2 4 4 4 1 5 9 9 4 3 5 7 9 11 11 9 8 9 12 14 12 7 6 9 9 10 12 9 7
20 19 20 21 22 23 21 23 20 13 14 16 9 3 2 2 2 1 1 3 7 9 10 7 5 7 10 14 15 7 1 2 6 4 7 12 8 5 2 3 5 3 2 2 1 1 1 4 8 7 6 4 2 5 5 3 3 1 3 3 3 3 1 3 5 10 8 2 3 6 7 7 8 9 9 8 9 8 9 10 7 7 9 10 10 11 9 7
20 19 20 20 21 21 20 22 17 11 15 16 7 2 5 7 7 7 3 2 6 4 5 4 4 4 6 10 10 5 4 3 5 3 7 10 6 5 4 4 5 3 1 3 4 2 2 6 8 7 4 2 2 3 5 2 3 1 3 3 3 4 3 3 3 10 7 2 5 7 5 4 4 6 7 7 4 2 3 5 4 4 8 11 10 9 10 10
20 19 19 19 21 19 20 20 11 9 18 15 7 7 15 18 15 9 2 1 4 4 4 5 4 5 5 5 3 6 3 3 5 4 6 9 4 3 5 4 4 3 1 4 6 4 6 8 3 3 4 4 4 2 5 3 3 1 4 5 4 4 4 4 7 9 5 3 7 9 4 1 3 5 7 6 4 3 5 5 4 4 5 7 7 6 9 10
19 19 18 18 19 18 19 13 3 11 19 11 7 15 21 20 15 7 2 2 3 5 3 2 1 3 5 3 3 5 2 3 5 4 7 9 7 3 2 2 3 4 4 4 6 4 8 7 1 1 3 5 5 4 4 5 3 2 4 9 7 6 7 10 13 9 4 2 7 9 4 3 4 6 8 6 5 7 7 8 8 6 4 5 6 6 7 9
19 17 17 17 18 19 14 3 4 16 15 5 10 19 18 15 12 4 2 4 2 4 2 0 0 2 4 1 3 2 3 2 5 3 6 9 9 5 2 1 1 4 5 4 3 3 5 3 4 4 4 5 5 5 5 7 4 2 5 9 8 8 11 15 15 8 3 3 6 7 4 1 3 7 9 7 7 8 7 9 10 7 6 6 7 6 6 8
18 16 16 16 18 18 9 2 11 14 5 4 14 18 15 13 7 1 2 5 2 3 1 1 1 1 2 1 3 5 3 4 2 2 6 9 7 4 4 3 1 3 3 3 1 3 4 3 4 5 5 5 5 5 5 8 6 4 5 5 7 10 13 17 14 7 3 4 5 6 2 2 3 6 8 9 9 9 9 11 11 9 8 7 8 7 7 8
16 15 15 14 16 16 9 7 12 8 3 9 16 16 15 12 3 1 4 3 1 2 2 2 2 2 3 1 3 3 3 2 2 2 5 10 6 3 4 5 5 4 2 4 3 5 3 5 5 7 5 5 5 6 7 9 6 6 5 4 7 10 14 15 11 5 4 6 3 7 3 2 3 3 7 10 10 11 13 15 13 12 11 9 9 8 7 7
15 14 14 14 15 13 9 10 10 7 8 13 16 17 15 9 3 3 4 2 1 2 1 1 2 3 2 1 1 0 2 1 2 4 1 6 3 3 4 5 5 4 3 4 5 6 3 6 7 7 5 5 7 8 8 10 7 6 6 5 3 6 9 10 7 4 4 4 4 10 8 2 2 3 6 8 10 13 14 14 13 12 11 10 10 9 7 5
14 13 14 14 13 10 9 12 10 8 10 13 16 16 10 5 4 4 3 1 1 2 1 1 2 2 2 3 2 2 2 1 0 1 3 2 2 4 2 2 3 1 3 1 4 6 5 5 4 4 5 7 8 8 9 12 10 3 4 4 3 3 4 5 2 3 4 2 5 10 12 5 1 3 6 9 12 15 14 11 12 13 12 11 10 9 8 6
12 12 14 14 12 8 7 8 9 10 11 13 16 12 5 3 4 5 3 1 1 2 2 2 2 1 2 4 0 2 1 2 2 2 3 2 3 4 2 2 2 2 3 4 4 5 4 3 3 4 6 7 5 6 6 9 9 3 3 4 4 3 2 4 4 4 2 5 4 8 12 6 3 4 7 12 12 10 13 14 15 17 15 12 11 10 8 6
11 11 13 14 13 10 7 7 10 12 11 12 12 6 4 3 3 2 1 2 2 2 2 3 2 2 2 3 1 2 1 1 1 2 3 3 2 2 2 2 3 0 3 3 3 5 4 4 4 3 5 6 5 3 2 4 6 5 3 5 5 1 0 2 1 2 1 6 4 8 11 6 5 5 7 13 11 6 10 13 14 15 15 13 12 11 8 6
11 11 12 13 14 14 12 11 11 9 10 11 7 4 5 4 3 2 3 2 1 3 2 3 2 3 3 3 1 2 0 2 2 1 2 3 2 3 2 1 4 4 1 4 2 4 3 5 4 2 3 4 7 5 3 3 5 6 6 5 5 4 3 4 2 2 2 9 6 7 10 4 5 3 3 8 9 7 7 10 12 13 14 13 12 11 9 7
11 11 13 14 16 16 12 8 7 6 9 8 4 5 6 5 1 3 3 2 3 3 3 2 0 3 4 2 3 2 1 2 2 3 2 3 3 1 2 3 1 3 3 1 1 0 1 4 4 4 3 3 6 7 6 6 5 5 5 5 5 5 5 4 4 4 5 6 2 6 7 3 2 2 5 6 7 8 8 8 10 11 11 11 10 10 9 8
11 11 14 15 15 12 7 4 4 5 6 5 5 5 6 2 3 2 2 4 3 3 5 3 4 5 3 2 3 1 2 1 2 5 4 3 2 1 2 3 3 1 2 1 2 1 2 4 7 5 4 3 5 6 6 7 4 3 3 5 4 5 5 3 3 6 5 2 1 3 3 3 3 3 7 4 3 6 7 6 8 10 10 10 9 9 9 8
11 12 12 12 13 9 6 5 3 2 3 5 6 4 2 1 2 1 2 2 1 2 4 5 7 5 3 3 4 4 2 2 3 4 3 2 2 2 2 2 2 1 3 4 2 1 1 4 6 5 4 4 5 5 4 6 4 2 3 4 4 4 6 4 1 1 3 4 1 1 1 4 1 2 7 6 5 5 5 5 7 8 10 10 9 9 9 6
12 11 8 11 13 10 9 7 2 1 4 5 5 2 1 2 3 2 3 1 1 1 3 4 4 3 2 2 3 6 4 3 3 3 2 2 2 3 4 4 2 1 3 3 2 2 2 3 6 2 3 6 4 3 1 2 5 4 3 5 3 2 4 3 2 2 3 3 1 1 1 4 1 1 6 9 9 8 6 4 5 6 8 8 7 7 6 7
12 9 7 9 8 8 8 4 2 3 4 5 4 2 1 1 1 1 3 2 2 3 6 3 1 1 1 1 2 5 3 3 2 2 2 2 1 1 2 3 3 3 3 0 1 1 3 2 7 2 2 7 3 4 3 3 3 5 5 3 2 3 1 1 2 2 2 2 1 3 2 2 1 1 5 8 7 7 6 6 7 6 6 5 5 5 8 9
7 5 4 5 8 8 4 2 4 4 5 4 3 2 1 2 3 2 3 2 3 4 4 1 1 2 1 2 1 4 4 3 1 3 2 1 1 0 2 1 4 7 7 3 2 1 2 2 5 4 2 4 4 3 2 3 3 4 3 2 1 3 3 2 2 3 4 3 2 1 3 2 1 1 2 4 6 5 5 7 8 7 6 6 5 6 7 8
3 3 2 7 12 5 2 6 4 5 4 1 1 2 2 2 3 5 4 3 3 2 2 0 1 3 2 2 1 2 4 3 1 3 2 1 2 1 3 1 3 6 6 5 3 0 2 3 2 6 5 1 0 1 4 5 2 3 4 2 0 1 1 2 1 1 4 4 3 2 1 3 2 1 1 5 7 7 8 9 8 7 7 8 7 7 6 6
4 3 2 6 11 4 6 6 4 2 1 1 2 3 3 2 2 5 5 4 3 1 3 3 2 3 1 2 3 2 2 3 3 3 2 1 2 0 2 0 2 4 4 5 4 1 1 2 1 4 5 1 3 4 3 6 5 5 4 2 3 3 3 3 0 2 2 4 4 5 3 4 3 2 2 4 7 8 9 11 10 9 9 9 8 8 6 5
4 2 3 5 5 3 6 4 2 0 0 2 2 3 2 2 2 4 5 4 4 2 3 3 2 2 2 1 1 2 2 3 3 2 1 1 2 2 2 2 3 1 3 1 3 2 1 2 1 3 3 3 7 7 3 3 3 5 4 2 3 3 3 5 3 3 2 3 2 3 2 2 1 2 1 4 7 9 10 10 11 10 9 10 9 9 7 6
2 2 4 7 0 7 6 3 3 2 2 4 2 2 2 2 2 4 5 4 4 2 3 3 1 2 3 1 1 2 3 2 3 2 0 1 1 1 4 6 4 2 4 2 3 3 0 2 2 3 4 4 7 6 4 3 5 5 2 2 2 2 2 5 5 3 4 2 2 3 1 1 1 2 2 6 9 10 9 9 11 10 9 10 10 9 8 8
1 4 4 7 2 8 5 1 3 3 4 3 3 3 3 3 4 5 4 3 3 1 2 2 1 1 2 1 2 3 1 2 4 3 1 1 2 3 5 7 6 3 2 0 2 2 2 1 2 2 3 4 6 6 7 7 5 2 3 4 2 2 4 4 2 3 3 3 4 4 2 2 2 2 3 6 8 10 9 7 9 9 8 8 7 7 8 8
1 1 3 6 4 4 3 3 4 2 3 2 5 4 5 3 2 2 3 3 4 1 3 1 2 1 2 3 4 4 4 4 3 3 3 2 3 4 6 7 7 4 2 2 2 0 2 2 2 3 3 2 2 3 3 4 4 2 3 5 4 2 4 4 2 4 2 2 3 4 3 3 5 6 6 6 7 9 8 7 8 8 8 7 6 7 8 8
2 2 3 6 6 4 1 1 3 3 1 3 4 4 5 2 2 3 4 5 6 4 3 1 2 1 4 5 5 5 6 5 3 3 3 4 3 3 5 6 7 6 6 4 4 2 3 2 2 4 4 3 4 3 4 3 2 4 5 6 6 3 1 5 4 2 3 3 2 1 5 9 9 8 8 8 8 10 9 7 7 7 8 7 6 7 8 8
2 1 2 2 3 4 3 4 3 2 1 3 3 2 4 3 3 5 5 4 4 4 3 3 5 4 3 4 4 3 5 5 5 4 2 3 3 3 5 5 7 9 8 6 6 4 4 3 4 3 3 0 3 3 4 1 3 3 5 5 7 7 3 5 4 3 6 6 0 3 8 12 12 10 9 9 9 9 8 7 6 7 7 7 7 8 10 10
2 0 1 2 0 1 2 3 3 4 5 4 3 2 3 5 5 4 4 2 3 4 3 4 7 7 5 3 4 2 4 5 5 4 3 3 3 4 7 6 6 9 7 5 5 4 5 2 3 2 3 3 4 6 6 3 2 2 4 7 8 8 4 5 3 2 6 5 4 9 10 10 11 11 9 8 8 8 8 7 7 8 8 7 8 9 11 10
2 1 2 2 1 3 3 4 2 5 7 4 3 3 3 5 5 3 3 3 4 5 4 4 5 7 8 6 5 3 4 3 3 4 3 3 3 2 4 5 5 7 7 5 4 3 4 1 3 2 3 6 9 9 8 6 5 5 7 8 8 7 5 6 5 5 7 5 6 12 11 6 7 9 8 6 7 7 7 6 6 9 9 8 8 9 10 10
1 0 2 3 2 3 3 3 1 5 5 3 3 3 2 3 4 3 3 4 3 5 4 5 3 4 8 8 7 5 1 4 3 2 1 2 3 1 1 1 3 6 7 5 4 3 3 1 3 4 3 6 9 10 9 7 5 7 9 9 8 8 6 6 7 8 9 8 9 13 12 6 3 5 7 7 7 8 8 7 6 7 7 7 9 9 9 9
2 2 0 2 2 4 3 3 3 5 3 3 2 1 2 3 2 2 3 3 2 1 1 4 2 3 6 8 8 4 2 4 4 3 3 2 0 0 0 1 1 3 6 4 3 4 4 1 3 5 3 3 7 10 11 9 5 8 10 11 9 6 3 2 3 4 8 11 12 11 9 5 4 7 8 8 9 10 9 8 7 7 6 8 9 9 8 9
6 2 2 3 0 3 3 3 3 4 1 1 1 1 2 2 2 3 4 3 3 3 1 5 4 3 5 8 7 5 5 5 6 5 4 4 1 2 3 3 4 3 2 3 3 3 3 2 2 3 3 2 7 8 8 7 6 4 5 7 8 3 1 2 3 3 9 13 11 8 6 6 8 10 10 10 10 10 8 8 8 7 7 8 9 9 9 8
Wind_Direction
345 344 343 342 340 339 338 337 335 334 334 333 334 334 331 330 329 329 326 325 325 323 325 324 323 326 318 312 311 305 309 308 306 290 243 251 246 229 220 194 176 160 161 162 167 165 155 173 196 191 182 183 184 199 177 156 133 120 142 194 325 262 147 151 175 169 131 141 158 173 189 144 140 164 296 103 91 120 114 81 97 95 106 121 130 140 145 147
343 342 341 340 338 338 337 335 334 333 332 331 332 331 328 326 326 327 324 324 325 323 326 325 327 328 315 313 310 307 316 315 311 282 251 250 250 224 204 187 175 167 165 167 174 165 150 175 186 181 170 161 188 173 164 160 154 167 163 80 248 254 127 151 171 147 143 149 152 165 172 147 147 144 202 141 130 133 116 116 122 107 110 120 131 141 147 149
342 342 340 341 339 336 335 334 334 332 330 330 328 327 326 324 323 324 324 324 325 326 327 327 328 324 314 308 308 314 320 325 312 268 259 246 230 214 187 180 177 176 178 178 184 175 158 166 171 167 157 199 214 172 170 181 195 185 136 328 250 215 132 139 153 146 146 145 145 154 161 148 147 129 143 142 134 137 137 142 139 129 133 136 138 145 150 150
341 341 340 343 342 338 336 334 332 330 329 328 326 326 326 322 320 321 324 325 327 328 326 329 327 316 314 308 309 320 322 332 286 245 273 246 212 192 177 177 178 185 188 183 186 183 163 127 157 166 164 227 228 170 182 190 193 186 159 230 229 177 137 142 149 141 133 142 145 143 146 144 147 57 74 142 141 148 161 161 153 145 144 145 146 149 152 151
340 339 340 343 344 342 340 336 333 330 328 326 326 326 324 321 318 321 325 326 329 327 326 330 327 309 301 309 304 318 335 42 248 248 303 285 193 177 173 177 181 190 192 189 183 181 183 84 118 147 185 235 205 161 197 190 177 221 216 236 199 167 130 144 146 137 137 138 136 143 149 141 129 58 44 141 155 166 166 162 156 148 146 149 150 151 153 151
339 339 341 341 343 342 340 338 334 332 329 327 325 324 324 321 318 322 324 327 329 325 326 330 326 301 278 281 295 318 45 196 272 248 276 344 179 175 171 177 183 188 193 194 180 166 178 126 101 121 197 243 197 191 209 178 173 239 258 264 200 186 135 148 147 140 146 147 155 157 141 111 105 85 40 67 241 223 155 150 151 146 146 148 149 152 154 153
337 340 342 341 341 340 339 338 336 335 331 328 325 323 322 323 323 323 325 330 329 325 326 327 319 252 231 124 238 11 84 267 266 210 204 104 172 176 171 176 177 181 189 189 176 158 158 151 146 152 192 241 207 217 222 159 183 228 278 257 183 183 148 149 147 146 151 153 165 135 101 102 118 112 69 68 300 255 140 141 144 141 145 148 151 156 156 155
337 339 339 339 340 340 339 337 337 338 336 332 328 325 325 325 325 324 330 333 326 326 325 319 305 188 128 117 177 12 325 256 238 206 215 156 166 172 171 174 175 179 185 189 184 159 154 163 172 167 188 243 213 202 178 134 193 227 246 258 145 136 132 134 140 141 131 92 53 85 94 111 120 110 86 344 317 145 136 139 143 142 146 151 156 158 156 158
337 337 336 337 338 339 338 336 337 339 340 337 330 328 329 327 326 328 334 331 326 326 322 305 238 156 113 112 123 359 271 246 211 202 201 168 166 171 174 178 179 181 183 196 194 166 169 176 187 195 204 254 218 180 173 146 232 214 216 267 130 121 99 107 118 113 103 78 64 82 93 99 82 79 55 326 309 143 140 143 146 148 150 155 160 160 160 161
336 336 337 337 338 339 338 338 337 338 340 339 331 328 332 330 325 330 335 330 328 324 321 219 194 146 123 132 104 121 262 272 178 186 183 175 172 172 179 183 182 182 183 194 194 184 186 176 179 202 231 270 241 201 177 174 224 184 166 35 89 103 74 88 97 93 88 85 100 102 108 103 356 356 150 267 282 143 144 148 151 152 152 159 161 162 163 165
337 338 339 340 341 339 339 339 338 337 338 338 332 330 334 332 323 330 336 331 331 325 312 180 182 144 124 81 129 204 271 294 208 194 191 187 180 180 186 188 185 185 182 181 200 201 198 196 181 190 221 270 294 270 175 196 200 148 120 63 69 83 68 82 96 109 94 92 126 122 125 273 340 169 154 189 267 140 149 153 155 156 155 162 162 162 166 168
339 340 341 342 342 341 340 339 338 338 336 336 332 332 337 331 320 326 336 339 340 329 277 175 161 148 109 62 214 228 267 25 236 205 208 200 193 198 198 194 191 190 185 180 209 210 205 215 355 348 245 322 332 312 201 243 134 137 117 91 98 83 75 76 88 118 109 126 149 124 116 277 340 135 120 151 284 156 155 156 158 159 158 163 163 163 168 172
341 341 342 344 344 344 343 339 339 338 336 336 332 336 338 325 316 323 347 359 345 326 196 156 156 150 93 271 242 226 209 342 319 261 220 209 207 207 202 200 199 197 195 196 210 213 210 221 299 271 281 328 296 267 236 330 117 126 103 110 128 77 54 7 71 109 109 139 167 128 127 209 194 202 165 236 261 162 159 161 162 161 160 165 166 167 173 175
342 341 343 346 346 345 344 341 341 340 338 337 335 338 339 318 308 318 15 25 24 102 135 141 149 137 100 262 269 252 259 304 284 248 220 207 209 206 201 201 204 204 207 213 219 206 203 219 244 258 277 242 250 286 5 22 97 119 99 100 119 122 194 113 103 129 119 162 204 141 125 181 185 197 188 203 225 161 162 163 162 162 163 168 170 173 178 179
344 343 345 347 345 344 347 345 344 342 341 342 342 345 344 309 310 6 83 83 98 121 135 138 151 123 38 277 280 292 282 287 244 230 218 206 197 193 198 197 205 210 215 224 226 220 212 234 239 241 273 239 218 349 16 20 39 125 124 100 33 131 160 96 148 168 151 178 229 213 114 180 200 190 183 182 163 155 164 166 162 164 168 170 173 177 181 182
345 345 348 346 343 345 347 346 346 345 345 348 350 357 8 204 139 114 115 117 119 128 128 121 156 141 60 281 292 305 246 232 236 224 213 209 199 185 186 188 205 214 219 228 230 247 267 303 246 206 248 245 159 98 54 41 10 285 118 137 157 149 152 102 170 193 171 154 211 268 140 168 207 180 172 170 159 155 169 171 165 166 171 171 175 180 181 181
346 346 346 343 342 345 347 346 347 347 349 354 356 358 195 181 147 129 118 106 121 139 131 69 5 89 263 281 311 327 258 239 237 212 203 206 204 181 163 173 205 200 214 236 244 261 249 219 230 220 233 185 125 97 80 106 206 264 44 108 169 143 156 190 154 187 185 159 190 233 166 166 157 158 165 171 170 170 179 180 171 169 172 175 177 181 184 181
344 344 343 341 341 345 347 346 347 348 350 357 355 342 215 159 125 124 129 112 110 133 147 327 6 57 275 285 297 304 302 293 244 202 200 202 206 189 163 165 143 131 130 301 251 228 189 218 139 194 301 113 119 112 143 195 166 165 149 123 152 141 182 216 180 173 180 179 187 174 172 173 139 151 163 166 177 185 187 183 178 173 173 178 179 181 186 181
341 342 341 340 341 346 346 345 348 348 351 0 1 3 142 132 104 106 131 121 114 184 277 243 171 94 278 274 283 293 308 306 256 195 196 199 206 199 176 163 116 110 99 64 239 204 165 22 83 151 208 187 186 162 170 176 114 141 175 158 166 174 205 215 159 163 169 173 184 167 164 167 156 164 163 162 184 189 187 190 197 180 176 181 181 184 187 179
339 340 340 340 341 346 346 345 348 349 355 6 11 71 127 112 73 10 192 171 206 232 259 218 183 254 291 276 288 302 315 308 237 194 193 194 190 179 174 150 88 91 130 152 221 219 137 167 218 203 203 209 203 161 178 237 84 117 136 168 181 186 212 188 126 157 167 165 184 164 148 163 169 172 165 162 187 188 184 197 206 183 181 184 184 187 186 180
339 340 339 340 341 345 346 342 347 352 357 2 11 80 147 138 60 317 275 244 238 226 238 233 198 234 267 268 282 307 346 322 251 229 195 188 166 144 185 137 104 120 208 175 211 262 115 184 228 219 208 215 194 142 167 252 295 108 119 170 195 200 223 169 125 156 164 147 149 142 144 169 176 171 164 162 185 192 186 192 198 185 185 186 187 188 183 175
339 339 339 341 342 345 344 340 345 351 355 359 9 62 230 232 154 287 314 291 271 223 220 239 223 247 262 264 268 265 59 297 283 293 186 170 150 152 170 97 134 200 242 110 98 357 152 228 237 228 214 219 193 125 147 233 281 95 127 176 204 209 161 64 114 156 159 133 136 142 147 170 174 167 169 175 189 199 196 198 194 183 185 186 191 187 178 169
339 338 339 342 342 345 342 337 340 347 352 352 347 322 326 328 310 310 342 280 288 249 203 209 209 243 265 269 257 200 135 206 242 260 177 154 152 173 141 112 155 184 105 124 150 150 209 242 236 220 190 200 248 133 135 239 294 117 148 192 224 201 153 75 145 159 154 136 136 134 130 154 167 165 177 180 174 191 244 241 217 196 192 190 192 186 176 172
340 338 341 340 341 346 341 334 337 350 346 340 329 343 352 349 335 328 2 199 299 296 222 195 188 205 241 274 211 160 147 198 200 220 178 146 140 164 149 146 146 162 205 163 156 166 238 253 240 185 160 179 240 194 137 189 268 227 191 217 224 183 158 130 153 151 119 92 127 122 103 185 194 188 192 177 152 188 221 234 233 233 209 189 189 188 181 175
342 339 340 340 342 346 341 334 343 349 341 335 345 351 353 353 346 344 51 57 326 297 263 206 207 229 249 274 204 188 161 202 214 202 171 151 142 137 167 165 130 187 219 155 146 193 254 259 152 156 177 170 223 241 171 174 225 307 232 224 211 160 133 129 143 145 107 138 156 135 126 241 222 205 204 180 174 203 208 213 221 224 212 195 189 187 186 179
344 338 340 342 341 346 349 349 342 341 337 331 351 349 347 352 348 336 79 54 344 299 305 102 301 270 277 273 178 127 80 258 252 176 153 159 159 138 137 204 103 191 198 150 154 218 256 236 152 197 208 175 209 240 201 165 153 297 247 224 200 146 132 141 151 151 134 176 182 159 135 202 226 216 204 180 189 207 209 218 222 216 208 205 197 184 180 182
344 338 341 341 340 348 355 312 329 337 332 329 344 345 345 355 356 308 69 44 356 306 290 263 327 299 281 253 122 97 115 259 289 124 158 171 173 111 124 191 172 194 190 135 197 241 232 219 176 197 201 185 208 237 206 158 145 238 248 205 174 147 146 159 162 156 139 119 165 198 147 102 228 221 186 178 198 208 212 221 222 217 211 209 207 192 177 182
345 338 339 339 339 343 340 319 325 327 308 327 336 341 345 354 8 127 76 61 340 305 252 262 311 295 293 322 85 107 204 212 106 253 202 169 170 82 131 194 170 193 200 131 210 257 215 210 205 195 198 203 212 221 196 162 171 242 236 183 174 165 162 168 164 150 131 104 160 220 185 114 261 231 168 177 199 210 212 216 217 215 211 208 210 198 180 183
345 338 334 335 335 335 331 316 311 311 318 325 331 336 341 353 31 73 77 87 358 304 251 346 319 287 320 26 45 12 270 67 139 256 229 149 172 77 156 198 163 202 245 149 210 261 233 211 199 177 188 212 220 221 189 170 201 239 212 207 184 162 163 162 162 138 116 121 199 212 192 168 285 215 162 172 204 215 210 210 213 213 210 207 209 203 183 178
344 334 328 331 331 332 325 310 309 330 327 322 327 331 341 14 60 66 48 49 7 268 244 357 282 263 71 77 339 302 258 301 301 325 67 110 350 29 137 181 117 157 295 270 236 255 258 237 200 169 193 210 219 220 186 181 204 207 180 197 60 77 134 135 151 90 106 212 227 198 191 183 295 222 178 188 209 207 198 198 203 206 208 205 207 208 189 176
342 329 324 326 325 322 314 306 323 336 321 317 324 333 7 43 66 83 59 39 276 293 300 291 269 267 110 124 251 283 234 311 355 105 127 111 27 21 38 27 51 50 355 335 289 279 289 255 218 215 210 199 205 227 197 181 196 184 143 149 85 31 50 70 4 28 111 245 234 182 183 180 238 239 203 214 220 194 187 195 196 198 201 199 203 208 196 179
341 326 322 323 318 305 291 300 323 326 313 314 327 358 70 42 27 68 308 330 340 307 268 256 247 211 169 126 166 252 189 306 325 134 152 125 107 199 177 166 184 74 338 286 300 321 298 236 236 257 231 187 165 226 244 147 166 165 139 134 123 101 89 119 313 25 191 256 242 161 161 176 243 245 217 224 225 188 188 198 195 196 194 193 198 202 199 184
341 328 323 321 313 307 306 317 327 323 311 318 342 51 80 70 40 336 293 325 298 263 258 254 208 142 116 84 292 266 52 263 238 155 129 102 110 230 243 200 162 127 199 228 294 346 320 288 282 270 265 196 155 176 219 172 166 163 157 156 154 150 154 173 183 88 213 254 257 153 153 193 267 272 270 242 223 195 190 194 191 191 190 190 193 195 197 188
344 335 327 318 313 314 322 333 331 312 313 335 35 66 57 67 12 316 315 272 253 284 311 298 106 91 93 121 236 201 90 263 193 119 71 52 48 331 342 346 14 129 138 195 273 150 134 289 258 204 247 220 171 180 179 158 157 174 166 148 155 162 159 173 176 174 208 246 268 135 155 202 230 251 291 277 233 195 179 183 179 179 182 181 184 190 193 190
348 335 324 316 313 319 332 341 327 317 329 14 61 64 59 66 271 309 308 272 287 329 322 343 53 63 47 327 291 248 144 223 78 76 48 51 67 340 344 344 342 28 132 146 249 192 139 255 250 241 248 215 195 198 157 123 130 202 151 117 164 186 157 143 172 183 180 155 109 146 181 234 208 266 307 302 213 171 154 155 157 162 167 167 174 185 191 190
351 337 325 314 311 311 315 309 296 338 16 57 64 53 63 205 231 213 266 285 350 324 327 7 39 44 0 334 326 333 27 55 59 66 43 72 88 3 334 285 327 346 153 152 215 232 79 269 275 300 290 233 202 201 168 143 158 191 132 150 212 185 130 123 174 170 111 125 188 178 305 308 312 335 343 21 66 72 87 124 144 150 155 161 172 183 188 167
351 346 322 303 307 305 305 300 258 62 47 78 72 40 228 220 196 203 273 335 49 36 56 39 23 33 357 338 325 327 4 30 30 64 57 31 32 348 331 290 276 221 180 159 183 194 139 276 286 314 307 276 216 157 38 125 136 131 167 196 211 119 91 104 139 20 60 127 247 12 324 306 6 53 349 19 38 26 27 82 116 123 141 158 170 174 160 123
339 343 315 299 319 324 314 305 145 79 61 75 35 338 220 274 267 257 304 347 45 48 69 69 4 59 68 54 325 323 21 55 3 60 90 30 355 273 335 305 292 324 318 82 105 121 106 311 289 256 255 295 318 85 29 345 81 123 165 179 131 139 179 79 146 174 103 129 275 346 331 285 157 173 345 13 21 7 22 67 88 94 115 136 142 136 127 127
338 356 323 331 354 335 323 121 120 62 57 64 7 318 259 295 305 327 326 9 68 63 71 73 1 45 40 87 303 323 43 83 54 94 103 52 99 178 36 328 300 335 348 34 94 289 82 94 282 283 280 300 339 71 175 273 357 56 77 45 77 143 163 155 156 161 133 141 193 346 340 277 204 281 346 37 35 39 63 73 75 80 88 100 111 112 121 139
17 30 302 2 10 353 116 97 70 54 56 45 246 256 292 302 309 328 344 42 66 64 86 89 31 47 5 12 21 339 44 63 47 92 95 52 111 331 343 349 305 333 356 33 68 287 45 90 265 302 334 21 177 232 192 183 149 74 54 18 298 90 129 156 103 74 123 140 162 141 255 265 283 347 81 77 66 76 88 82 73 69 67 75 90 98 109 129
47 35 265 13 26 65 114 69 22 56 70 307 247 247 296 338 343 334 347 46 72 106 124 122 88 74 30 10 18 342 30 44 26 74 73 29 109 205 313 256 272 320 8 24 22 20 27 73 243 310 344 1 250 268 215 180 165 134 122 158 182 159 125 132 251 315 98 126 159 151 181 261 316 43 94 90 90 91 86 86 81 66 60 63 74 84 89 97
58 45 256 344 9 141 99 54 299 119 127 272 246 239 291 0 12 349 349 28 60 67 76 82 81 71 64 43 4 354 56 46 10 55 92 27 122 172 296 309 286 333 75 26 303 273 186 98 50 287 280 267 270 283 280 203 146 108 110 143 149 140 113 127 187 247 80 85 106 103 127 254 355 54 100 99 97 91 83 85 83 69 59 56 58 60 58 62
87 238 291 348 72 152 91 12 290 357 272 249 259 262 304 24 16 359 2 26 42 44 48 42 27 52 48 33 18 38 61 54 23 30 58 6 31 261 312 336 339 40 74 27 301 287 248 75 27 306 293 308 297 303 340 20 68 70 14 12 88 80 107 141 174 170 125 131 115 75 42 215 87 44 109 107 96 91 88 88 88 84 68 56 50 45 45 49
168 235 298 359 76 150 116 297 270 324 290 285 27 344 337 43 47 10 358 5 5 69 79 19 323 49 48 77 71 37 33 80 49 20 26 54 340 313 343 358 2 26 48 324 266 307 345 36 45 19 356 351 343 348 357 1 27 46 306 320 0 66 99 124 131 79 104 192 152 127 195 212 132 129 126 110 96 90 88 86 88 90 84 76 71 64 57 49
27 289 282 338 14 120 142 188 175 221 282 18 48 10 355 25 51 15 19 17 1 101 121 357 300 73 55 65 60 27 37 82 77 16 22 12 316 328 357 3 9 15 335 246 235 331 51 48 72 99 107 88 48 7 329 313 331 329 311 336 358 84 124 143 120 77 106 203 127 127 170 163 145 145 130 118 111 101 96 91 88 90 92 91 89 86 78 65
55 31 311 325 2 48 76 206 129 142 172 68 51 13 18 16 309 349 46 43 7 17 79 13 328 49 52 54 49 19 24 49 69 64 30 341 308 306 339 1 19 5 345 353 12 57 96 41 49 116 126 146 170 218 260 261 355 342 316 342 2 353 87 112 109 123 167 144 76 167 160 145 154 160 142 131 123 113 107 102 98 102 105 104 99 94 91 84
73 45 10 342 343 11 6 353 36 70 80 89 79 8 22 31 346 352 28 44 2 7 43 25 14 29 35 55 71 20 5 29 40 41 0 318 296 292 325 7 25 1 353 5 12 57 98 25 6 86 89 219 213 262 310 345 62 351 320 5 14 346 10 95 121 183 153 126 89 217 158 148 162 166 150 140 130 119 118 117 115 113 106 106 105 99 95 95
59 217 90 104 188 308 356 336 4 60 60 72 80 28 21 41 39 14 352 353 3 20 52 31 12 20 23 52 107 53 3 30 29 359 340 341 337 339 344 350 3 7 15 15 3 66 105 41 331 28 38 8 353 356 5 33 71 2 355 34 28 352 11 95 108 145 134 140 190 173 155 152 158 156 148 142 133 124 125 128 124 113 102 100 100 95 94 96
41 46 320 47 122 221 240 279 307 71 58 52 58 34 27 43 40 6 321 359 8 4 55 68 7 20 36 47 94 69 13 51 37 340 342 353 342 17 12 336 330 360 25 25 4 68 109 23 336 6 27 15 5 2 13 28 36 22 9 25 36 16 30 80 84 80 88 97 136 138 131 125 139 147 143 127 117 114 111 107 106 104 102 103 100 96 98 98
49 100 318 12 10 277 271 302 34 79 45 35 64 29 23 56 43 16 4 39 25 339 31 83 37 40 56 52 76 78 29 147 124 336 338 24 355 37 60 295 294 338 10 23 351 23 77 1 346 38 41 358 352 357 7 13 32 36 13 6 28 36 39 76 101 98 83 81 102 116 117 111 113 129 125 114 112 116 114 110 99 92 94 96 93 92 94 90
327 245 332 74 2 330 339 343 54 87 37 16 80 20 10 23 20 72 36 36 98 20 50 129 118 45 52 45 54 43 291 188 175 272 247 195 238 36 47 171 175 344 2 14 348 9 51 19 1 54 72 329 337 353 353 347 11 35 14 354 0 19 40 79 113 124 120 120 118 117 127 145 147 133 126 122 124 123 120 113 99 87 91 97 95 92 87 84
354 300 24 92 219 344 11 350 27 79 67 302 112 72 43 333 306 107 83 17 45 60 140 157 130 67 48 32 17 333 282 235 224 246 224 193 151 82 76 68 81 69 15 21 18 11 51 72 38 70 113 288 321 339 349 360 18 15 345 336 331 317 155 76 33 95 130 135 137 148 159 150 141 140 136 133 133 129 124 116 110 107 104 100 98 95 88 82